Meteo Giornale » Osservazioni meteo Mayotte » Dzaoudzi-Pamanzi Mayotte
ore: 13:30 - Osservazioni Meteo Dzaoudzi-Pamanzi Mayotte
Lat. 12° 48' S Lon. 45° 17' E Alt. 8 metri s.l.m.
30 °C
Sereno
Temp. 24 Ore
22 °C
30 °C
Est/Sud-Est
14.8 Km/h
Dew point 23 °C
Umidità 66 %
Visibilità 10 Km
Il sole sorge alle ore 06:02
Il sole tramonta alle ore 17:54
| Data e Ora | Cielo e Fenomeni | T °C | DP °C | Um. % | Pres. hPa | Vis. km | Vento km/h | |
|---|---|---|---|---|---|---|---|---|
| Oggi h: 13:30 | Sereno | 30 | 23 | 66 | 1019 | 10 | E/SE 14.8 | |
| Oggi h: 13:00 | Sereno | 30 | 23 | 66 | 1019 | 10 | E/SE 16.7 | |
| Oggi h: 12:30 | Sereno | 29 | 22 | 66 | 1019 | 10 | E/SE 16.7 | |
| Oggi h: 12:00 | Poco Nuvoloso | 28 | 22 | 69 | 1020 | 10 | SE 14.8 | |
| Oggi h: 11:30 | Sereno | 28 | 21 | 65 | 1020 | 10 | S/SE 14.8 | |
| Oggi h: 11:00 | Sereno | 28 | 21 | 65 | 1020 | 10 | S/SE 14.8 | |
| Oggi h: 10:30 | Sereno | 29 | 22 | 66 | 1021 | 10 | S/SE 16.7 | |
| Oggi h: 10:00 | Poco Nuvoloso | 28 | 22 | 69 | 1021 | 10 | S/SE 14.8 | |
| Oggi h: 09:30 | Sereno | 28 | 21 | 65 | 1021 | 10 | S/SE 14.8 | |
| Oggi h: 09:00 | Poco Nuvoloso | 28 | 22 | 69 | 1021 | 10 | S 16.7 | |
| Oggi h: 08:30 | Sereno | 27 | 21 | 69 | 1020 | 10 | S/SO 14.8 | |
| Oggi h: 08:00 | Sereno | 26 | 22 | 78 | 1020 | 10 | S/SO 16.7 | |
| Oggi h: 07:30 | Sereno | 26 | 22 | 78 | 1020 | 10 | SO 7.4 | |
| Oggi h: 07:00 | Sereno | 25 | 22 | 83 | 1020 | 10 | S/SO 11.1 | |
| Oggi h: 06:30 | Sereno | 24 | 21 | 83 | 1019 | 10 | S/SO 11.1 | |
| Oggi h: 06:00 | Sereno | 24 | 21 | 83 | 1019 | 10 | S/SO 13 | |
| Oggi h: 05:30 | Sereno | 24 | 21 | 83 | 1019 | 10 | S/SO 16.7 | |
| Oggi h: 05:00 | Sereno | 24 | 21 | 83 | 1018 | 10 | S/SO 18.5 | |
| Oggi h: 04:30 | Sereno | 23 | 21 | 88 | 1018 | 10 | S/SO 7.4 | |
| Oggi h: 04:00 | Sereno | 23 | 21 | 88 | 1018 | 10 | SO 9.3 | |
| Oggi h: 03:30 | Sereno | 23 | 21 | 88 | 1018 | 10 | O/SO 11.1 | |
| Oggi h: 03:00 | Sereno | 23 | 21 | 88 | 1019 | 10 | O/SO 11.1 | |
| Oggi h: 02:30 | Sereno | 23 | 21 | 88 | 1019 | 10 | O/SO 7.4 | |
| Oggi h: 02:00 | Sereno | 23 | 22 | 94 | 1019 | 10 | N 5.5 | |
| Oggi h: 01:30 | Sereno | 22 | 21 | 94 | 1019 | 10 | N 5.5 | |
| Oggi h: 01:00 | Sereno | 22 | 21 | 94 | 1019 | 10 | N 3.7 | |
| Oggi h: 00:30 | Sereno | 23 | 21 | 88 | 1019 | 10 | N 5.5 | |
| Oggi h: 00:00 | Sereno | 23 | 21 | 88 | 1020 | 10 | N 5.5 | |
| Ieri h: 23:30 | Sereno | 24 | 21 | 83 | 1020 | 10 | N/NO 7.4 | |
| Ieri h: 23:00 | Sereno | 24 | 21 | 83 | 1020 | 10 | NO 13 | |
| Ieri h: 22:30 | Sereno | 23 | 21 | 88 | 1020 | 10 | N 7.4 | |
| Ieri h: 22:00 | Sereno | 23 | 21 | 88 | 1020 | 10 | N/NO 7.4 | |
| Ieri h: 21:30 | Sereno | 23 | 20 | 83 | 1020 | 10 | N 5.5 | |
| Ieri h: 21:00 | Sereno | 23 | 21 | 88 | 1020 | 10 | N 0 | |
| Ieri h: 20:30 | Sereno | 23 | 20 | 83 | 1020 | 10 | N 0 | |
| Ieri h: 20:00 | Sereno | 23 | 20 | 83 | 1020 | 10 | N 3.7 | |
| Ieri h: 19:30 | Sereno | 24 | 20 | 78 | 1019 | 10 | N 3.7 | |
| Ieri h: 19:00 | Poco Nuvoloso | 24 | 20 | 78 | 1019 | 10 | N 0 | |
| Ieri h: 18:30 | Sereno | 25 | 20 | 73 | 1019 | 10 | N 3.7 | |
| Ieri h: 18:00 | Poco Nuvoloso | 26 | 20 | 69 | 1018 | 10 | N 5.5 | |
| Ieri h: 17:30 | Sereno | 26 | 20 | 69 | 1018 | 10 | O/SO 7.4 | |
| Ieri h: 17:00 | Sereno | 27 | 21 | 69 | 1018 | 10 | O/SO 11.1 | |
| Ieri h: 16:30 | Sereno | 27 | 21 | 69 | 1018 | 10 | O/SO 13 | |
| Ieri h: 16:00 | Molto Nuvoloso | 26 | 21 | 73 | 1018 | 10 | SO 14.8 | |
| Ieri h: 15:30 | Molto Nuvoloso | 26 | 21 | 73 | 1018 | 10 | O/SO 16.7 | |
| Ieri h: 15:00 | Molto Nuvoloso | 26 | 21 | 73 | 1018 | 10 | O/SO 18.5 | |



